| time (UTC) | temp F | wind direction | speed knots | gust knots | rain 1hr in | rain 24hr in | rain mn in | humidity % | barometer mb |
| 20260507015001 | 74 | 171 | 0.0 | 1.7 | 0.00 | 0.00 | 0.00 | 71 | 1010.2 |
| 20260507014501 | 74 | 171 | 0.0 | 1.7 | 0.00 | 0.00 | 0.00 | 70 | 1010.0 |
| 20260507014002 | 75 | 171 | 0.0 | 1.7 | 0.00 | 0.00 | 0.00 | 70 | 1010.0 |
| 20260507013502 | 75 | 171 | 0.0 | 1.7 | 0.00 | 0.00 | 0.00 | 70 | 1009.7 |
| 20260507013004 | 75 | 171 | 0.0 | 1.7 | 0.00 | 0.00 | 0.00 | 69 | 1009.9 |
| 20260507012502 | 76 | 171 | 0.0 | 1.7 | 0.00 | 0.00 | 0.00 | 69 | 1009.9 |
| 20260507012002 | 76 | 171 | 0.0 | 1.7 | 0.00 | 0.00 | 0.00 | 68 | 1009.9 |
| 20260507011504 | 76 | 171 | 0.0 | 1.7 | 0.00 | 0.00 | 0.00 | 67 | 1010.1 |
| 20260507011002 | 76 | 171 | 0.0 | 0.9 | 0.00 | 0.00 | 0.00 | 67 | 1010.1 |
| 20260507010502 | 77 | 171 | 0.0 | 1.7 | 0.00 | 0.00 | 0.00 | 66 | 1010.2 |
| 20260507010004 | 77 | 171 | 0.0 | 1.7 | 0.00 | 0.00 | 0.00 | 66 | 1010.2 |
| 20260507005502 | 77 | 171 | 0.0 | 0.9 | 0.00 | 0.00 | 0.00 | 65 | 1010.2 |
| 20260507005001 | 77 | 171 | 0.0 | 0.9 | 0.00 | 0.00 | 0.00 | 64 | 1010.3 |
| 20260507004501 | 78 | 171 | 0.0 | 0.9 | 0.00 | 0.00 | 0.00 | 63 | 1010.3 |
| 20260507004002 | 79 | 171 | 0.0 | 0.9 | 0.00 | 0.00 | 0.00 | 62 | 1010.3 |
| 20260507003502 | 79 | 171 | 0.0 | 0.9 | 0.00 | 0.00 | 0.00 | 61 | 1010.1 |
| 20260507003001 | 80 | 171 | 0.0 | 0.0 | 0.00 | 0.00 | 0.00 | 60 | 1010.3 |
| 20260507002503 | 81 | 171 | 0.0 | 0.0 | 0.00 | 0.00 | 0.00 | 58 | 1010.3 |
| 20260507002003 | 81 | 171 | 0.0 | 2.6 | 0.00 | 0.00 | 0.00 | 56 | 1010.3 |
| 20260507001504 | 82 | 171 | 0.0 | 2.6 | 0.00 | 0.00 | 0.00 | 51 | 1010.3 |
| 20260507001002 | 82 | 169 | 0.0 | 1.7 | 0.00 | 0.00 | 0.00 | 51 | 1010.3 |
| 20260507000501 | 83 | 169 | 0.0 | 2.6 | 0.00 | 0.00 | 0.00 | 50 | 1010.1 |
| 20260507000002 | 83 | 186 | 0.0 | 3.5 | 0.00 | 0.00 | 0.00 | 49 | 1010.2 |
| 20260506235602 | 83 | 182 | 0.9 | 4.3 | 0.00 | 0.00 | 0.00 | 49 | 1010.2 |
| 20260506235059 | 84 | 187 | 0.9 | 4.3 | 0.00 | 0.00 | 0.00 | 48 | 1010.2 |
| 20260506234501 | 84 | 209 | 0.9 | 4.3 | 0.00 | 0.00 | 0.00 | 48 | 1010.2 |
| 20260506234001 | 84 | 209 | 0.9 | 5.2 | 0.00 | 0.00 | 0.00 | 48 | 1010.3 |
| 20260506233502 | 85 | 229 | 0.0 | 8.7 | 0.00 | 0.00 | 0.00 | 48 | 1010.3 |
| 20260506233002 | 85 | 200 | 2.6 | 6.1 | 0.00 | 0.00 | 0.00 | 47 | 1010.3 |
| 20260506232501 | 85 | 197 | 0.0 | 3.5 | 0.00 | 0.00 | 0.00 | 47 | 1010.2 |
| 20260506232002 | 85 | 207 | 0.9 | 4.3 | 0.00 | 0.00 | 0.00 | 46 | 1010.2 |
| 20260506231502 | 86 | 171 | 0.9 | 5.2 | 0.00 | 0.00 | 0.00 | 46 | 1010.1 |
| 20260506231001 | 86 | 174 | 1.7 | 5.2 | 0.00 | 0.00 | 0.00 | 46 | 1010.1 |
| 20260506230501 | 86 | 223 | 1.7 | 6.1 | 0.00 | 0.00 | 0.00 | 46 | 1010.3 |
| 20260506230009 | 86 | 223 | 0.9 | 5.2 | 0.00 | 0.00 | 0.00 | 46 | 1010.3 |
| 20260506225502 | 86 | 202 | 2.6 | 5.2 | 0.00 | 0.00 | 0.00 | 46 | 1010.3 |
| 20260506225001 | 86 | 230 | 0.9 | 7.8 | 0.00 | 0.00 | 0.00 | 45 | 1010.3 |
| 20260506224502 | 86 | 192 | 1.7 | 7.8 | 0.00 | 0.00 | 0.00 | 45 | 1010.4 |
| 20260506224001 | 86 | 175 | 3.5 | 8.7 | 0.00 | 0.00 | 0.00 | 45 | 1010.4 |
| 20260506223501 | 86 | 221 | 2.6 | 7.0 | 0.00 | 0.00 | 0.00 | 45 | 1010.4 |
| 20260506223002 | 86 | 282 | 2.6 | 7.8 | 0.00 | 0.00 | 0.00 | 44 | 1010.5 |
| 20260506222501 | 86 | 175 | 0.9 | 7.0 | 0.00 | 0.00 | 0.00 | 44 | 1010.5 |
| 20260506222001 | 87 | 167 | 3.5 | 8.7 | 0.00 | 0.00 | 0.00 | 43 | 1010.6 |
| 20260506221500 | 87 | 194 | 2.6 | 8.7 | 0.00 | 0.00 | 0.00 | 43 | 1010.7 |
| 20260506221001 | 87 | 219 | 3.5 | 9.6 | 0.00 | 0.00 | 0.00 | 43 | 1010.6 |
| 20260506220502 | 88 | 131 | 3.5 | 9.6 | 0.00 | 0.00 | 0.00 | 42 | 1010.6 |
| 20260506220003 | 88 | 202 | 3.5 | 0.0 | 8.43 | 0.77 | 0.00 | 43 | 1010.6 |
| 20260506215559 | 87 | 225 | 2.6 | 6.1 | 0.00 | 0.00 | 0.00 | 44 | 1010.6 |
| 20260506215100 | 87 | 247 | 1.7 | 12.2 | 0.00 | 0.00 | 0.00 | 44 | 1010.6 |
| 20260506214503 | 86 | 239 | 6.1 | 12.2 | 0.00 | 0.00 | 0.00 | 44 | 1010.8 |
| 20260506214002 | 87 | 207 | 6.1 | 13.0 | 0.00 | 0.00 | 0.00 | 44 | 1010.8 |
| 20260506213501 | 87 | 245 | 3.5 | 14.8 | 0.00 | 0.00 | 0.00 | 44 | 1010.7 |
| 20260506213001 | 88 | 259 | 4.3 | 14.8 | 0.00 | 0.00 | 0.00 | 43 | 1010.7 |
| 20260506212503 | 88 | 172 | 4.3 | 12.2 | 0.00 | 0.00 | 0.00 | 43 | 1010.6 |
| 20260506212001 | 89 | 244 | 2.6 | 13.0 | 0.00 | 0.00 | 0.00 | 44 | 1010.5 |
| 20260506211501 | 89 | 175 | 7.0 | 13.0 | 0.00 | 0.00 | 0.00 | 44 | 1010.5 |
| 20260506211002 | 89 | 188 | 2.6 | 13.0 | 0.00 | 0.00 | 0.00 | 45 | 1010.5 |
| 20260506210502 | 88 | 217 | 6.1 | 13.0 | 0.00 | 0.00 | 0.00 | 44 | 1010.5 |
| 20260506210003 | 88 | 207 | 2.6 | 8.7 | 0.00 | 0.00 | 0.00 | 45 | 1010.6 |
| 20260506205501 | 88 | 173 | 3.5 | 8.7 | 0.00 | 0.00 | 0.00 | 45 | 1010.5 |
| 20260506205001 | 88 | 250 | 3.5 | 11.3 | 0.00 | 0.00 | 0.00 | 45 | 1010.6 |
| 20260506204501 | 89 | 184 | 1.7 | 9.6 | 0.00 | 0.00 | 0.00 | 46 | 1010.5 |
| 20260506204000 | 88 | 198 | 3.5 | 9.6 | 0.00 | 0.00 | 0.00 | 46 | 1010.6 |
| 20260506203502 | 87 | 184 | 4.3 | 11.3 | 0.00 | 0.00 | 0.00 | 47 | 1010.8 |
| 20260506203001 | 87 | 244 | 3.5 | 11.3 | 0.00 | 0.00 | 0.00 | 47 | 1011.0 |
| 20260506202503 | 87 | 205 | 1.7 | 11.3 | 0.00 | 0.00 | 0.00 | 48 | 1011.0 |
| 20260506202002 | 86 | 209 | 2.6 | 11.3 | 0.00 | 0.00 | 0.00 | 48 | 1011.2 |
| 20260506201502 | 87 | 183 | 4.3 | 9.6 | 0.00 | 0.00 | 0.00 | 48 | 1011.3 |
| 20260506201002 | 87 | 209 | 3.5 | 9.6 | 0.00 | 0.00 | 0.00 | 46 | 1011.4 |
| 20260506200501 | 88 | 222 | 1.7 | 7.0 | 0.00 | 0.00 | 0.00 | 47 | 1011.5 |
| 20260506200002 | 87 | 184 | 2.6 | 8.7 | 0.00 | 0.00 | 0.00 | 47 | 1011.7 |
| 20260506195559 | 87 | 190 | 2.6 | 12.2 | 0.00 | 0.00 | 0.00 | 49 | 1011.8 |
| 20260506195102 | 86 | 203 | 3.5 | 12.2 | 0.00 | 0.00 | 0.00 | 50 | 1011.8 |
| 20260506194502 | 86 | 245 | 4.3 | 11.3 | 0.00 | 0.00 | 0.00 | 51 | 1011.9 |
| 20260506194002 | 85 | 254 | 2.6 | 9.6 | 0.00 | 0.00 | 0.00 | 50 | 1011.9 |
| 20260506193501 | 86 | 185 | 2.6 | 8.7 | 0.00 | 0.00 | 0.00 | 51 | 1011.9 |
| 20260506193001 | 85 | 191 | 3.5 | 7.8 | 0.00 | 0.00 | 0.00 | 51 | 1011.8 |
| 20260506192501 | 84 | 153 | 0.9 | 7.8 | 0.00 | 0.00 | 0.00 | 54 | 1012.1 |
| 20260506192001 | 83 | 179 | 3.5 | 7.8 | 0.00 | 0.00 | 0.00 | 56 | 1012.2 |
| 20260506191502 | 82 | 198 | 2.6 | 8.7 | 0.00 | 0.00 | 0.00 | 56 | 1012.4 |
| 20260506191002 | 82 | 182 | 3.5 | 9.6 | 0.00 | 0.00 | 0.00 | 57 | 1012.2 |
| 20260506190501 | 82 | 172 | 4.3 | 9.6 | 0.00 | 0.00 | 0.00 | 56 | 1012.3 |
| 20260506190008 | 81 | 238 | 3.5 | 7.8 | 0.00 | 0.00 | 0.00 | 56 | 1012.6 |
| 20260506185501 | 82 | 262 | 3.5 | 8.7 | 0.00 | 0.00 | 0.00 | 56 | 1012.9 |
| 20260506185001 | 82 | 181 | 4.3 | 7.8 | 0.00 | 0.00 | 0.00 | 55 | 1012.9 |
| 20260506184502 | 82 | 205 | 2.6 | 8.7 | 0.00 | 0.00 | 0.00 | 58 | 1013.0 |
| 20260506184001 | 81 | 226 | 3.5 | 10.4 | 0.00 | 0.00 | 0.00 | 57 | 1012.9 |
| 20260506183501 | 81 | 213 | 3.5 | 7.8 | 0.00 | 0.00 | 0.00 | 59 | 1012.9 |
| 20260506183002 | 80 | 213 | 3.5 | 8.7 | 0.00 | 0.00 | 0.00 | 60 | 1012.9 |
| 20260506182501 | 79 | 200 | 1.7 | 6.1 | 0.00 | 0.00 | 0.00 | 61 | 1012.9 |
| 20260506182003 | 79 | 198 | 1.7 | 8.7 | 0.00 | 0.00 | 0.00 | 61 | 1013.3 |
| 20260506181503 | 79 | 211 | 3.5 | 8.7 | 0.00 | 0.00 | 0.00 | 61 | 1013.4 |
| 20260506181001 | 78 | 188 | 3.5 | 7.8 | 0.00 | 0.00 | 0.00 | 61 | 1013.3 |
| 20260506180502 | 78 | 161 | 3.5 | 12.2 | 0.00 | 0.00 | 0.00 | 62 | 1013.2 |
| 20260506180002 | 78 | 206 | 3.5 | 12.2 | 0.00 | 0.00 | 0.00 | 62 | 1013.4 |
| 20260506175559 | 78 | 259 | 3.5 | 7.8 | 0.00 | 0.00 | 0.00 | 62 | 1013.6 |
| 20260506175059 | 78 | 225 | 1.7 | 9.6 | 0.00 | 0.00 | 0.00 | 62 | 1013.9 |
| 20260506174559 | 78 | 171 | 4.3 | 13.0 | 0.00 | 0.00 | 0.00 | 61 | 1013.9 |
| 20260506174100 | 79 | 214 | 4.3 | 13.0 | 0.00 | 0.00 | 0.00 | 60 | 1013.7 |
| 20260506173600 | 79 | 175 | 5.2 | 10.4 | 0.00 | 0.00 | 0.00 | 60 | 1014.0 |
| 20260506173111 | 79 | 222 | 3.5 | 9.6 | 0.00 | 0.00 | 0.00 | 62 | 1014.2 |
| 20260506172607 | 78 | 171 | 4.3 | 10.4 | 0.00 | 0.00 | 0.00 | 63 | 1014.2 |
| 20260506172059 | 77 | 213 | 1.7 | 9.6 | 0.00 | 0.00 | 0.00 | 65 | 1014.4 |
| 20260506171605 | 77 | 169 | 2.6 | 9.6 | 0.00 | 0.00 | 0.00 | 64 | 1014.4 |
| 20260506171103 | 77 | 185 | 3.5 | 7.0 | 0.00 | 0.00 | 0.00 | 64 | 1014.5 |
| 20260506170603 | 77 | 166 | 3.5 | 7.0 | 0.00 | 0.00 | 0.00 | 64 | 1014.7 |
| 20260506170004 | 76 | 191 | 4.3 | 7.8 | 0.00 | 0.00 | 0.00 | 65 | 1014.8 |
| 20260506165602 | 76 | 205 | 1.7 | 10.4 | 0.00 | 0.00 | 0.00 | 65 | 1014.7 |
| 20260506165100 | 77 | 188 | 2.6 | 10.4 | 0.00 | 0.00 | 0.00 | 65 | 1014.6 |
| 20260506164613 | 77 | 218 | 3.5 | 9.6 | 0.00 | 0.00 | 0.00 | 64 | 1014.9 |
| 20260506164100 | 76 | 148 | 2.6 | 8.7 | 0.00 | 0.00 | 0.00 | 65 | 1014.9 |
| 20260506163559 | 77 | 232 | 4.3 | 7.0 | 0.00 | 0.00 | 0.00 | 64 | 1014.9 |
| 20260506163103 | 77 | 194 | 2.6 | 7.0 | 0.00 | 0.00 | 0.00 | 64 | 1015.0 |
| 20260506162559 | 77 | 227 | 2.6 | 7.0 | 0.00 | 0.00 | 0.00 | 64 | 1015.0 |
| 20260506162103 | 77 | 279 | 2.6 | 7.0 | 0.00 | 0.00 | 0.00 | 64 | 1015.1 |
| 20260506161600 | 77 | 198 | 3.5 | 6.1 | 0.00 | 0.00 | 0.00 | 65 | 1015.0 |
| 20260506161101 | 77 | 227 | 2.6 | 7.0 | 0.00 | 0.00 | 0.00 | 65 | 1014.9 |
| 20260506160559 | 77 | 293 | 1.7 | 7.8 | 0.00 | 0.00 | 0.00 | 65 | 1015.0 |
| 20260506160108 | 76 | 240 | 3.5 | 7.8 | 0.00 | 0.00 | 0.00 | 65 | 1014.9 |
| 20260506160001 | 76 | 194 | 2.6 | 7.8 | 0.00 | 0.00 | 0.00 | 65 | 1014.8 |
| 20260506155602 | 76 | 284 | 3.5 | 7.8 | 0.00 | 0.00 | 0.00 | 65 | 1014.8 |
| 20260506155101 | 76 | 280 | 1.7 | 7.8 | 0.00 | 0.00 | 0.00 | 65 | 1014.9 |
| 20260506154604 | 76 | 228 | 3.5 | 7.8 | 0.00 | 0.00 | 0.00 | 66 | 1014.7 |
| 20260506154103 | 76 | 175 | 0.0 | 7.0 | 0.00 | 0.00 | 0.00 | 67 | 1014.6 |
| 20260506153603 | 75 | 246 | 3.5 | 7.0 | 0.00 | 0.00 | 0.00 | 67 | 1014.6 |
| 20260506153114 | 75 | 238 | 2.6 | 7.0 | 0.00 | 0.00 | 0.00 | 68 | 1014.7 |
| 20260506152559 | 75 | 198 | 0.9 | 7.8 | 0.00 | 0.00 | 0.00 | 68 | 1014.6 |
| 20260506152059 | 74 | 244 | 3.5 | 7.8 | 0.00 | 0.00 | 0.00 | 68 | 1014.5 |
| 20260506151600 | 74 | 215 | 2.6 | 5.2 | 0.00 | 0.00 | 0.00 | 68 | 1014.5 |
| 20260506151502 | 74 | 234 | 1.7 | 6.1 | 0.00 | 0.00 | 0.00 | 68 | 1014.5 |
| 20260506151102 | 74 | 238 | 2.6 | 6.1 | 0.00 | 0.00 | 0.00 | 68 | 1014.5 |
| 20260506150559 | 74 | 211 | 3.5 | 7.8 | 0.00 | 0.00 | 0.00 | 68 | 1014.4 |
| 20260506150103 | 74 | 206 | 2.6 | 7.8 | 0.00 | 0.00 | 0.00 | 68 | 1014.4 |
| 20260506150002 | 74 | 246 | 1.7 | 7.8 | 0.00 | 0.00 | 0.00 | 68 | 1014.4 |
| 20260506145559 | 74 | 242 | 2.6 | 7.0 | 0.00 | 0.00 | 0.00 | 68 | 1014.4 |
| 20260506145103 | 74 | 221 | 3.5 | 7.0 | 0.00 | 0.00 | 0.00 | 69 | 1014.4 |
| 20260506144608 | 73 | 225 | 1.7 | 6.1 | 0.00 | 0.00 | 0.00 | 70 | 1014.4 |
| 20260506144059 | 73 | 194 | 1.7 | 6.1 | 0.00 | 0.00 | 0.00 | 71 | 1014.4 |
| 20260506143600 | 72 | 176 | 2.6 | 9.6 | 0.00 | 0.00 | 0.00 | 72 | 1014.5 |
| 20260506143059 | 72 | 244 | 3.5 | 9.6 | 0.00 | 0.00 | 0.00 | 71 | 1014.6 |
| 20260506142559 | 71 | 195 | 2.6 | 7.0 | 0.00 | 0.00 | 0.00 | 72 | 1014.7 |
| 20260506142503 | 71 | 269 | 2.6 | 7.0 | 0.00 | 0.00 | 0.00 | 72 | 1014.7 |
| 20260506142100 | 71 | 240 | 3.5 | 7.0 | 0.00 | 0.00 | 0.00 | 72 | 1014.7 |
| 20260506141559 | 71 | 313 | 1.7 | 6.1 | 0.00 | 0.00 | 0.00 | 72 | 1014.7 |
| 20260506141059 | 71 | 252 | 0.9 | 6.1 | 0.00 | 0.00 | 0.00 | 72 | 1014.7 |
| 20260506141004 | 71 | 252 | 1.7 | 6.1 | 0.00 | 0.00 | 0.00 | 72 | 1014.7 |
| 20260506140559 | 70 | 279 | 2.6 | 6.1 | 0.00 | 0.00 | 0.00 | 72 | 1014.6 |
| 20260506140106 | 70 | 173 | 1.7 | 4.3 | 0.00 | 0.00 | 0.00 | 73 | 1014.6 |
| 20260506140005 | 70 | 234 | 0.9 | 3.5 | 0.00 | 0.00 | 0.00 | 73 | 1014.6 |
| 20260506135559 | 70 | 186 | 1.7 | 4.3 | 0.00 | 0.00 | 0.00 | 74 | 1014.6 |
| 20260506135059 | 69 | 201 | 2.6 | 4.3 | 0.00 | 0.00 | 0.00 | 74 | 1014.6 |
| 20260506134559 | 69 | 213 | 1.7 | 6.1 | 0.00 | 0.00 | 0.00 | 75 | 1014.7 |
| 20260506134102 | 68 | 247 | 2.6 | 6.1 | 0.00 | 0.00 | 0.00 | 75 | 1014.7 |
| 20260506133559 | 68 | 207 | 0.9 | 6.1 | 0.00 | 0.00 | 0.00 | 76 | 1014.7 |
| 20260506133101 | 68 | 194 | 2.6 | 6.1 | 0.00 | 0.00 | 0.00 | 76 | 1014.5 |
| 20260506132559 | 67 | 160 | 1.7 | 5.2 | 0.00 | 0.00 | 0.00 | 76 | 1014.4 |
| 20260506132059 | 67 | 209 | 1.7 | 7.0 | 0.00 | 0.00 | 0.00 | 77 | 1014.6 |
| 20260506131559 | 67 | 196 | 3.5 | 7.0 | 0.00 | 0.00 | 0.00 | 77 | 1014.6 |
| 20260506131059 | 67 | 228 | 1.7 | 4.3 | 0.00 | 0.00 | 0.00 | 78 | 1014.6 |
| 20260506130559 | 66 | 222 | 1.7 | 4.3 | 0.00 | 0.00 | 0.00 | 78 | 1014.7 |
| 20260506130103 | 66 | 194 | 1.7 | 7.0 | 0.00 | 0.00 | 0.00 | 78 | 1014.7 |
| 20260506130002 | 66 | 202 | 1.7 | 7.0 | 0.00 | 0.00 | 0.00 | 78 | 1014.6 |
| 20260506125559 | 66 | 288 | 2.6 | 7.0 | 0.00 | 0.00 | 0.00 | 78 | 1014.7 |
| 20260506125059 | 66 | 230 | 2.6 | 7.0 | 0.00 | 0.00 | 0.00 | 79 | 1014.8 |
| 20260506124608 | 65 | 279 | 2.6 | 6.1 | 0.00 | 0.00 | 0.00 | 79 | 1014.6 |
| 20260506124059 | 65 | 22 | 2.6 | 7.8 | 0.00 | 0.00 | 0.00 | 79 | 1014.6 |
| 20260506123559 | 65 | 264 | 3.5 | 7.8 | 0.00 | 0.00 | 0.00 | 80 | 1014.6 |
| 20260506123102 | 65 | 227 | 0.9 | 6.1 | 0.00 | 0.00 | 0.00 | 80 | 1014.5 |
| 20260506122600 | 65 | 236 | 2.6 | 8.7 | 0.00 | 0.00 | 0.00 | 80 | 1014.6 |
| 20260506122059 | 65 | 232 | 2.6 | 8.7 | 0.00 | 0.00 | 0.00 | 80 | 1014.4 |
| 20260506121602 | 64 | 192 | 1.7 | 6.1 | 0.00 | 0.00 | 0.00 | 80 | 1014.2 |
| 20260506121101 | 64 | 188 | 1.7 | 7.0 | 0.00 | 0.00 | 0.00 | 81 | 1014.3 |
| 20260506120559 | 64 | 250 | 1.7 | 7.0 | 0.00 | 0.00 | 0.00 | 81 | 1014.3 |
| 20260506120059 | 64 | 242 | 0.9 | 7.0 | 0.00 | 0.00 | 0.00 | 82 | 1014.3 |
| 20260506120005 | 64 | 235 | 0.9 | 7.0 | 0.00 | 0.00 | 0.00 | 82 | 1014.3 |
| 20260506115559 | 63 | 225 | 0.9 | 6.1 | 0.00 | 0.00 | 0.00 | 83 | 1014.3 |
| 20260506115059 | 63 | 240 | 1.7 | 4.3 | 0.00 | 0.00 | 0.00 | 83 | 1014.2 |
| 20260506114609 | 63 | 267 | 0.0 | 6.1 | 0.00 | 0.00 | 0.00 | 83 | 1014.2 |
| 20260506114504 | 63 | 267 | 0.9 | 6.1 | 0.00 | 0.00 | 0.00 | 84 | 1014.2 |
| 20260506114102 | 63 | 230 | 1.7 | 5.2 | 0.00 | 0.00 | 0.00 | 84 | 1014.1 |
| 20260506113559 | 62 | 248 | 1.7 | 5.2 | 0.00 | 0.00 | 0.00 | 84 | 1013.9 |
| 20260506113100 | 62 | 210 | 0.9 | 5.2 | 0.00 | 0.00 | 0.00 | 85 | 1013.7 |
| 20260506112559 | 62 | 198 | 1.7 | 4.3 | 0.00 | 0.00 | 0.00 | 86 | 1013.5 |
| 20260506112502 | 62 | 202 | 0.9 | 4.3 | 0.00 | 0.00 | 0.00 | 86 | 1013.5 |
| 20260506112059 | 62 | 207 | 1.7 | 4.3 | 0.00 | 0.00 | 0.00 | 86 | 1013.4 |
| 20260506111559 | 61 | 196 | 1.7 | 3.5 | 0.00 | 0.00 | 0.00 | 86 | 1013.4 |
| 20260506111059 | 61 | 200 | 0.0 | 2.6 | 0.00 | 0.00 | 0.00 | 87 | 1013.5 |
| 20260506110559 | 61 | 226 | 0.0 | 2.6 | 0.00 | 0.00 | 0.00 | 87 | 1013.5 |
| 20260506110100 | 61 | 174 | 0.9 | 3.5 | 0.00 | 0.00 | 0.00 | 87 | 1013.6 |
| 20260506110003 | 61 | 226 | 0.0 | 4.3 | 0.00 | 0.00 | 0.00 | 87 | 1013.6 |
| 20260506105559 | 61 | 180 | 0.9 | 4.3 | 0.00 | 0.00 | 0.00 | 87 | 1013.6 |
| 20260506105100 | 60 | 202 | 0.9 | 4.3 | 0.00 | 0.00 | 0.00 | 88 | 1013.5 |
| 20260506104606 | 60 | 163 | 0.0 | 4.3 | 0.00 | 0.00 | 0.00 | 88 | 1013.3 |
| 20260506104059 | 60 | 172 | 1.7 | 4.3 | 0.00 | 0.00 | 0.00 | 88 | 1013.3 |
| 20260506103559 | 60 | 192 | 0.9 | 5.2 | 0.00 | 0.00 | 0.00 | 88 | 1013.4 |
| 20260506103059 | 60 | 209 | 0.9 | 5.2 | 0.00 | 0.00 | 0.00 | 88 | 1013.3 |
| 20260506102559 | 60 | 186 | 0.9 | 2.6 | 0.00 | 0.00 | 0.00 | 88 | 1013.3 |
| 20260506102104 | 60 | 191 | 0.9 | 2.6 | 0.00 | 0.00 | 0.00 | 88 | 1013.4 |
| 20260506101559 | 60 | 191 | 0.0 | 3.5 | 0.00 | 0.00 | 0.00 | 88 | 1013.3 |
| 20260506101059 | 60 | 183 | 0.0 | 3.5 | 0.00 | 0.00 | 0.00 | 88 | 1013.2 |
| 20260506100559 | 59 | 231 | 0.9 | 2.6 | 0.00 | 0.00 | 0.00 | 88 | 1013.3 |
| 20260506100059 | 59 | 166 | 0.0 | 2.6 | 0.00 | 0.00 | 0.00 | 88 | 1013.2 |
| 20260506100001 | 59 | 166 | 0.9 | 2.6 | 0.00 | 0.00 | 0.00 | 88 | 1013.1 |
| 20260506095559 | 59 | 213 | 0.0 | 2.6 | 0.00 | 0.00 | 0.00 | 87 | 1013.2 |
| 20260506095100 | 59 | 213 | 0.9 | 2.6 | 0.00 | 0.00 | 0.00 | 87 | 1013.2 |
| 20260506094559 | 59 | 219 | 0.0 | 2.6 | 0.00 | 0.00 | 0.00 | 86 | 1013.4 |
| 20260506094103 | 59 | 219 | 0.0 | 2.6 | 0.00 | 0.00 | 0.00 | 86 | 1013.6 |
| 20260506093559 | 60 | 238 | 0.0 | 0.9 | 0.00 | 0.00 | 0.00 | 85 | 1013.8 |
| 20260506093100 | 60 | 238 | 0.0 | 0.9 | 0.00 | 0.00 | 0.00 | 85 | 1013.8 |
| 20260506092559 | 60 | 238 | 0.0 | 0.9 | 0.00 | 0.00 | 0.00 | 85 | 1013.7 |
| 20260506092059 | 60 | 238 | 0.0 | 0.9 | 0.00 | 0.00 | 0.00 | 84 | 1013.8 |
| 20260506091601 | 60 | 238 | 0.0 | 1.7 | 0.00 | 0.00 | 0.00 | 84 | 1013.7 |
| 20260506091101 | 60 | 238 | 0.0 | 1.7 | 0.00 | 0.00 | 0.00 | 84 | 1013.7 |
| 20260506090602 | 61 | 238 | 0.0 | 0.9 | 0.00 | 0.00 | 0.00 | 83 | 1013.6 |
| 20260506090104 | 61 | 238 | 0.0 | 0.9 | 0.00 | 0.00 | 0.00 | 83 | 1013.7 |
| 20260506090001 | 61 | 238 | 0.0 | 0.9 | 0.00 | 0.00 | 0.00 | 83 | 1013.6 |
| 20260506085559 | 61 | 238 | 0.0 | 3.5 | 0.00 | 0.00 | 0.00 | 83 | 1013.6 |
| 20260506085059 | 61 | 238 | 0.0 | 3.5 | 0.00 | 0.00 | 0.00 | 83 | 1013.6 |
| 20260506084606 | 61 | 188 | 0.0 | 3.5 | 0.00 | 0.00 | 0.00 | 83 | 1013.7 |
| 20260506084100 | 61 | 188 | 0.9 | 4.3 | 0.00 | 0.00 | 0.00 | 83 | 1013.8 |
| 20260506083559 | 61 | 214 | 1.7 | 4.3 | 0.00 | 0.00 | 0.00 | 83 | 1013.9 |
| 20260506083059 | 61 | 173 | 0.9 | 2.6 | 0.00 | 0.00 | 0.00 | 83 | 1013.7 |
| 20260506082559 | 61 | 227 | 0.9 | 2.6 | 0.00 | 0.00 | 0.00 | 82 | 1013.8 |
| 20260506082059 | 61 | 211 | 0.0 | 2.6 | 0.00 | 0.00 | 0.00 | 82 | 1013.9 |
| 20260506081603 | 61 | 208 | 0.0 | 1.7 | 0.00 | 0.00 | 0.00 | 82 | 1013.9 |
| 20260506081059 | 61 | 208 | 0.0 | 1.7 | 0.00 | 0.00 | 0.00 | 82 | 1014.1 |
| 20260506080559 | 61 | 208 | 0.0 | 4.3 | 0.00 | 0.00 | 0.00 | 82 | 1014.2 |
| 20260506080107 | 62 | 170 | 0.0 | 3.5 | 0.00 | 0.00 | 0.00 | 82 | 1014.1 |
| 20260506073059 | 62 | 254 | 0.0 | 1.7 | 0.00 | 0.00 | 0.00 | 81 | 1014.1 |
| 20260506072559 | 62 | 162 | 0.0 | 1.7 | 0.00 | 0.00 | 0.00 | 80 | 1014.0 |
| 20260506072059 | 62 | 166 | 0.0 | 2.6 | 0.00 | 0.00 | 0.00 | 80 | 1014.0 |
| 20260506071606 | 62 | 166 | 0.9 | 2.6 | 0.00 | 0.00 | 0.00 | 80 | 1014.1 |
| 20260506071059 | 62 | 178 | 0.0 | 2.6 | 0.00 | 0.00 | 0.00 | 80 | 1014.1 |
| 20260506070602 | 62 | 196 | 0.0 | 2.6 | 0.00 | 0.00 | 0.00 | 79 | 1014.0 |
| 20260506070104 | 62 | 195 | 0.9 | 2.6 | 0.00 | 0.00 | 0.00 | 79 | 1013.9 |
| 20260506062059 | 63 | 189 | 0.9 | 2.6 | 0.00 | 0.00 | 0.00 | 77 | 1014.1 |
| 20260506061559 | 64 | 215 | 0.9 | 2.6 | 0.00 | 0.00 | 0.00 | 77 | 1014.0 |
| 20260506061059 | 64 | 218 | 0.0 | 4.3 | 0.00 | 0.00 | 0.00 | 76 | 1014.0 |
| 20260506060559 | 64 | 168 | 0.0 | 2.6 | 0.00 | 0.00 | 0.00 | 76 | 1014.2 |
| 20260506051059 | 65 | 196 | 1.7 | 4.3 | 0.00 | 0.00 | 0.00 | 74 | 1014.5 |
| 20260506050559 | 65 | 194 | 0.9 | 3.5 | 0.00 | 0.00 | 0.00 | 74 | 1014.3 |
| 20260506050106 | 65 | 173 | 1.7 | 5.2 | 0.00 | 0.00 | 0.00 | 74 | 1014.5 |
| 20260506045002 | 65 | 179 | 0.0 | 3.5 | 0.00 | 0.00 | 0.00 | 73 | 1014.6 |
| 20260506044500 | 65 | 188 | 0.9 | 3.5 | 0.00 | 0.00 | 0.00 | 73 | 1014.7 |
| 20260506044000 | 65 | 199 | 0.9 | 4.3 | 0.00 | 0.00 | 0.00 | 73 | 1014.6 |
| 20260506043501 | 65 | 198 | 1.7 | 4.3 | 0.00 | 0.00 | 0.00 | 73 | 1014.7 |
| 20260506043002 | 66 | 176 | 0.0 | 7.8 | 0.00 | 0.00 | 0.00 | 72 | 1014.7 |
| 20260506042501 | 66 | 192 | 2.6 | 7.8 | 0.00 | 0.00 | 0.00 | 72 | 1014.6 |
| 20260506042001 | 66 | 170 | 0.9 | 6.1 | 0.00 | 0.00 | 0.00 | 72 | 1014.6 |
| 20260506041500 | 66 | 193 | 1.7 | 6.1 | 0.00 | 0.00 | 0.00 | 71 | 1014.7 |
| 20260506041003 | 66 | 209 | 0.0 | 5.2 | 0.00 | 0.00 | 0.00 | 71 | 1014.7 |
| 20260506040501 | 66 | 179 | 1.7 | 7.0 | 0.00 | 0.00 | 0.00 | 71 | 1014.7 |
| 20260506040007 | 66 | 225 | 0.9 | 7.8 | 0.00 | 0.00 | 0.00 | 71 | 1014.8 |
| 20260506035503 | 66 | 175 | 1.7 | 4.3 | 0.00 | 0.00 | 0.00 | 70 | 1014.7 |
| 20260506035001 | 67 | 183 | 0.9 | 4.3 | 0.00 | 0.00 | 0.00 | 70 | 1014.7 |
| 20260506034503 | 67 | 147 | 0.9 | 7.8 | 0.00 | 0.00 | 0.00 | 70 | 1014.7 |
| 20260506034002 | 67 | 138 | 1.7 | 7.8 | 0.00 | 0.00 | 0.00 | 69 | 1014.8 |
| 20260506033500 | 67 | 184 | 2.6 | 6.1 | 0.00 | 0.00 | 0.00 | 69 | 1014.8 |
| 20260506033000 | 67 | 190 | 0.0 | 6.1 | 0.00 | 0.00 | 0.00 | 68 | 1014.8 |
| 20260506032501 | 67 | 259 | 0.0 | 5.2 | 0.00 | 0.00 | 0.00 | 68 | 1014.7 |
| 20260506032003 | 68 | 155 | 0.9 | 5.2 | 0.00 | 0.00 | 0.00 | 67 | 1014.7 |
| 20260506031502 | 68 | 214 | 0.9 | 4.3 | 0.00 | 0.00 | 0.00 | 66 | 1014.6 |
| 20260506031001 | 68 | 142 | 0.0 | 6.1 | 0.00 | 0.00 | 0.00 | 66 | 1014.5 |
| 20260506030503 | 68 | 111 | 2.6 | 6.1 | 0.00 | 0.00 | 0.00 | 65 | 1014.5 |
| 20260506030015 | 68 | 161 | 0.9 | 5.2 | 0.00 | 0.00 | 0.00 | 65 | 1014.3 |
| 20260506025501 | 69 | 163 | 0.9 | 4.3 | 0.00 | 0.00 | 0.00 | 64 | 1014.4 |
| 20260506025002 | 69 | 184 | 1.7 | 7.8 | 0.00 | 0.00 | 0.00 | 63 | 1014.4 |
| 20260506024504 | 69 | 181 | 1.7 | 7.8 | 0.00 | 0.00 | 0.00 | 63 | 1014.4 |
| 20260506024002 | 69 | 161 | 0.0 | 6.1 | 0.00 | 0.00 | 0.00 | 62 | 1014.3 |
| 20260506023502 | 69 | 115 | 1.7 | 6.1 | 0.00 | 0.00 | 0.00 | 61 | 1014.5 |
| 20260506023000 | 70 | 190 | 1.7 | 7.0 | 0.00 | 0.00 | 0.00 | 61 | 1014.3 |
| 20260506022500 | 70 | 94 | 2.6 | 7.0 | 0.00 | 0.00 | 0.00 | 60 | 1014.5 |
| 20260506022002 | 70 | 161 | 1.7 | 8.7 | 0.00 | 0.00 | 0.00 | 60 | 1014.5 |
| 20260506021501 | 70 | 201 | 2.6 | 8.7 | 0.00 | 0.00 | 0.00 | 59 | 1014.5 |
| 20260506021004 | 71 | 201 | 0.9 | 7.0 | 0.00 | 0.00 | 0.00 | 59 | 1014.6 |
| 20260506020500 | 71 | 196 | 1.7 | 7.8 | 0.00 | 0.00 | 0.00 | 58 | 1014.6 |
| 20260506020003 | 71 | 170 | 0.0 | 7.8 | 0.00 | 0.00 | 0.00 | 58 | 1014.4 |
| 20260506015502 | 71 | 198 | 0.0 | 8.7 | 0.00 | 0.00 | 0.00 | 57 | 1014.5 |